Portada
METAR-TAF:

METAR-TAF

Aeropuertos :

Base Aérea de Valencia-Bétera

Valencia, España

latitud: 39-37-26N, longitud: 0-28-26W, altitud: 127 m

Observación

El informe se hizo hace 13 minutos, a las 05:00 UTC
Viento 5 kt del oeste-noroeste, variando entre oeste-suroeste y norte-noroeste
Temperatura 6°C
Humedad 81%
Presión 1022 hPa
Visibilidad 10 km o más

METAR: LEBT 150500Z AUTO 29005KT 240V330 9999 NCD 06/03 Q1022

Hora: 06:13 (05:13 UTC)


TAF: falta

Observaciones y pronósticos meteorológicos de más de 4000 aeropuertos (mensajes METAR y TAF).

Los puntos amarillos y rojos representan las estaciones disponibles.

Ponga el ratón en el punto deseado para ver el nombre de la estación.

Haga clic para ver las observaciones y los pronósticos meteorológicos.

Para cambiar el mapa : haga clic en los botones verdes con una cruz de color negro para hacer un zoom, en el botón verde con un guión para alejar o en las flechas verdes para mapas adyacentes.


METAR-TAF: